Location: Banska Bystrica
(48.7333°N, 19.1500°E)
Time: 16:13:09
(UTC+01:00)

ISS - Visible Passes

Search period start: 24 January 2021 00:00
Search period end: 03 February 2021 00:00
Orbit: 418 x 421 km, 51.6° (Epoch: 24 January)

Date Brightness Start Highest point End Pass type
(mag) Time Alt. Az. Time Alt. Az. Time Alt. Az.
24 Jan -3.4 17:09:57 10° SW 17:13:15 54° SSE 17:16:27 11° ENE visible
24 Jan -2.7 18:46:46 10° W 18:49:25 44° NW 18:49:25 44° NW visible
25 Jan -3.6 17:59:19 10° W 18:02:41 64° NNW 18:04:00 33° ENE visible
25 Jan -0.5 19:36:28 10° WNW 19:36:58 14° WNW 19:36:58 14° WNW visible
26 Jan -3.7 17:11:52 10° WSW 17:15:16 80° NNW 17:18:34 11° ENE visible
26 Jan -2.6 18:49:01 10° WNW 18:51:32 39° NW 18:51:32 39° NW visible
27 Jan -3.3 18:01:32 10° W 18:04:51 50° N 18:06:05 31° NE visible
27 Jan -0.5 19:38:32 10° WNW 19:39:04 14° WNW 19:39:04 14° WNW visible
28 Jan -3.4 17:14:02 10° W 17:17:22 55° N 17:20:39 10° ENE visible
28 Jan -2.7 18:51:08 10° WNW 18:53:37 42° NW 18:53:37 42° NW visible
29 Jan -3.4 18:03:40 10° WNW 18:07:00 51° N 18:08:11 33° ENE visible
29 Jan -0.6 19:40:33 10° WNW 19:41:10 14° WNW 19:41:10 14° WNW visible
30 Jan -3.3 17:16:12 10° WNW 17:19:29 49° N 17:22:47 10° ENE visible
30 Jan -3.0 18:53:06 10° WNW 18:55:46 52° WNW 18:55:46 52° WNW visible
31 Jan -3.8 18:05:40 10° WNW 18:09:03 70° NNE 18:10:25 33° E visible
31 Jan -0.6 19:42:40 10° W 19:43:24 15° W 19:43:24 15° W visible
01 Feb -3.5 17:18:12 10° WNW 17:21:34 58° NNE 17:24:54 10° E visible
01 Feb -2.8 18:55:06 10° WNW 18:58:07 45° SW 18:58:07 45° SW visible
02 Feb -3.5 18:07:36 10° WNW 18:10:58 67° SSW 18:12:57 22° SE visible
02 Feb -0.5 19:45:22 10° WSW 19:45:57 12° WSW 19:45:57 12° WSW visible
